This is the latest recevied weather packets stored in our database for station/object KY4LEX. If no packets are shown the sender has not sent any weather packets the latest 10 day(s).
| Time | Temp. | Humidity | Pressure | Rain* | Wind** | Luminosity | Snow |
|---|---|---|---|---|---|---|---|
| 1777873333 | 11.11° C | 63% | 1019.5 hPa | 0 mm | - | 0 W/m² | - |
| 1777873030 | 11.11° C | 62% | 1019.5 hPa | 0 mm | - | 0 W/m² | - |
| 1777872727 | 11.11° C | 62% | 1019.5 hPa | 0 mm | - | 0 W/m² | - |
| 1777872424 | 11.67° C | 61% | 1019.5 hPa | 0 mm | - | 0 W/m² | - |
| 1777872122 | 11.67° C | 62% | 1019.6 hPa | 0 mm | - | 0 W/m² | - |
| 1777871819 | 11.67° C | 62% | 1020 hPa | 0 mm | - | 0 W/m² | - |
| 1777871515 | 11.11° C | 62% | 1019.7 hPa | 0 mm | - | 0 W/m² | - |
| 1777871212 | 11.11° C | 63% | 1019.8 hPa | 0 mm | - | 0 W/m² | - |
| 1777870909 | 11.11° C | 63% | 1019.8 hPa | 0 mm | - | 0 W/m² | - |
| 1777870606 | 11.11° C | 62% | 1019.9 hPa | 0 mm | - | 0 W/m² | - |
| 1777870306 | 11.11° C | 63% | 1019.8 hPa | 0 mm | - | 0 W/m² | - |
| 1777870004 | 11.11° C | 63% | 1019.7 hPa | 0 mm | - | 0 W/m² | - |
| 1777869700 | 11.11° C | 65% | 1019.8 hPa | 0 mm | - | 0 W/m² | - |
| 1777869398 | 11.11° C | 65% | 1019.8 hPa | 0 mm | - | 0 W/m² | - |
| 1777869095 | 11.11° C | 65% | 1020 hPa | 0 mm | - | 0 W/m² | - |
| 1777868792 | 11.67° C | 63% | 1020.1 hPa | 0 mm | - | 0 W/m² | - |
| 1777868489 | 11.67° C | 61% | 1020 hPa | 0 mm | - | 0 W/m² | - |
| 1777868184 | 11.67° C | 62% | 1020.2 hPa | 0 mm | - | 0 W/m² | - |
| 1777867881 | 11.67° C | 61% | 1020.1 hPa | 0 mm | - | 0 W/m² | - |
| 1777867578 | 12.22° C | 61% | 1020 hPa | 0 mm | - | 0 W/m² | - |
| 1777867275 | 12.22° C | 60% | 1020.2 hPa | 0 mm | - | 0 W/m² | - |
| 1777866972 | 12.22° C | 60% | 1020.5 hPa | 0 mm | - | 0 W/m² | - |
| 1777866668 | 11.67° C | 59% | 1020.5 hPa | 0 mm | - | 0 W/m² | - |
| 1777866063 | 11.67° C | 64% | 1020.1 hPa | 0 mm | - | 0 W/m² | - |
| 1777865761 | 11.67° C | 63% | 1020.2 hPa | 0 mm | - | 0 W/m² | - |
* Rain latest hour (hover to see other rain measurements)
** Current wind speed in m/s (hover to see current wind gust speed)